Weather observations for the past three days for
Morganton-Lenoir Airport
Imperial (Metric)
Date Time (edt) Wind (mph) Vis. (mi.) Weather Sky Cond. Temperature (ºF) Relative Humidity Wind Chill (°F) Heat Index (°F) Pressure Precipitation (in)
Air Dwpt 6 hour altimeter (in) sea level (mb) 1 hr 3 hr 6 hr
Max. Min.
15 09:05 N 5 10.00 Fair CLR 78.1 68.7 73% 80 30.07 0.0
15 08:45 N 3 10.00 Fair CLR 76.5 69.1 78% 78 30.07 0.0
15 08:25 Calm 10.00 Fair CLR 75 68.5 80% 76 30.06 0.0
15 08:05 N 5 10.00 Fair CLR 73 68 84% 30.05 0.0
15 07:45 N 3 10.00 Fair CLR 71.1 67.8 90% 30.05 0.0
15 07:25 Calm 10.00 Fair CLR 70.3 68.4 93% 30.05 0.0
15 07:05 Calm 7.00 Fair CLR 68.9 68 97% 30.03 0.0
15 06:45 Calm 7.00 Fair CLR 67.5 66.9 98% 30.03 0.0
15 06:25 Calm 4.00 Fog/Mist CLR 65.8 65.3 98% 30.02 0.0
15 06:05 Calm 5.00 Fog/Mist CLR 66.2 65.3 97% 30.02 0.0
15 05:45 Calm 5.00 Fog/Mist CLR 67.1 66.6 98% 30.01 0.0
15 05:25 Calm 5.00 Fog/Mist CLR 68.5 68 98% 30 0.0
15 05:05 Calm 7.00 Fair CLR 68.2 67.6 98% 29.99 0.0
15 04:45 Calm 7.00 Fair CLR 67.5 66.9 98% 29.98 0.0
15 04:25 Calm 7.00 Fair CLR 67.5 66.4 96% 29.98 0.0
15 04:05 Calm 7.00 Fair CLR 67.5 66.6 97% 29.98 0.0
15 03:45 Calm 10.00 Fair CLR 68.9 68.2 98% 29.98 0.0
15 03:25 Calm 7.00 Fair CLR 68.4 67.5 97% 29.98 0.0
15 03:05 Calm 7.00 Fair CLR 68.9 68 97% 29.98 0.0
15 02:40 Calm 10.00 Fair CLR 69.1 68.2 97% 29.98 0.0
15 02:25 Calm 10.00 Fair CLR 68.4 67.5 97% 29.98 0.0
15 02:05 Calm 10.00 Fair CLR 69.1 68.2 97% 29.98 0.0
15 01:45 Calm 10.00 Fair CLR 69.1 68 96% 29.98 0.0
15 01:25 Calm 10.00 Fair CLR 69.1 68.2 97% 29.98 0.0
15 01:05 Calm 10.00 Fair CLR 69.6 68.4 96% 29.98 0.0
15 00:45 Calm 10.00 Fair CLR 69.8 68.9 97% 29.97 0.0
15 00:25 Calm 10.00 Fair CLR 70.3 69.1 96% 29.98 0.0
15 00:05 Calm 10.00 Fair CLR 71.1 69.4 95% 29.98 0.0
14 23:45 Calm 10.00 Fair CLR 71.8 70 94% 29.98 0.0
14 23:25 Calm 10.00 Fair CLR 72.9 70.9 94% 29.98 0.0
14 23:05 Calm 10.00 Fair CLR 72.7 70.7 94% 29.97 0.0
14 22:45 Calm 10.00 Fair CLR 74.1 70.9 90% 29.97 0.0
14 22:25 Calm 10.00 Fair CLR 74.5 70.9 89% 29.97 0.0
14 22:05 Calm 10.00 Fair CLR 73.9 70.7 90% 29.96 0.0
14 21:45 Calm 10.00 Partly Cloudy SCT110 75 71.2 88% 74 29.96 0.0
14 21:25 Calm 10.00 Partly Cloudy SCT110 75.2 71.8 89% 75 29.95 0.0
14 21:05 Calm 10.00 Fair CLR 76.5 73.4 90% 77 29.95 0.0
14 20:45 Calm 10.00 Fair CLR 78.6 73.9 86% 82 29.95 0.0
14 20:25 Calm 10.00 Fair CLR 80.2 74.5 83% 85 29.94 0.0
14 20:05 Calm 10.00 Fair CLR 83.1 74.5 75% 90 29.94 0.0
14 19:45 Calm 10.00 Fair CLR 83.1 74.1 74% 90 29.93 0.0
14 19:25 Calm 10.00 Fair CLR 86.5 70.9 60% 92 29.93 0.0
14 19:05 Calm 10.00 Fair CLR 87.4 69.8 56% 92 29.93 0.0
14 18:45 Calm 10.00 Fair CLR 88 68.7 53% 92 29.93 0.0
14 18:25 Calm 10.00 Fair CLR 87.6 67.8 52% 91 29.93 0.0
14 18:05 Calm 10.00 Fair CLR 89.8 66.9 47% 93 29.93 0.0
14 17:45 Calm 10.00 Fair CLR 89.4 67.5 48% 93 29.93 0.0
14 17:25 S 5 10.00 Mostly Cloudy SCT080 BKN095 BKN120 88.9 68.9 52% 93 29.93 0.0
14 17:05 Calm 10.00 Mostly Cloudy BKN095 BKN120 86.5 69.3 56% 91 29.94 0.0
14 16:45 Calm 10.00 Partly Cloudy SCT075 SCT095 87.8 67.5 51% 91 29.95 0.0
14 16:25 Calm 10.00 Partly Cloudy SCT080 89.2 65.8 46% 92 29.95 0.0
14 16:05 SE 3 10.00 Partly Cloudy SCT080 90.5 67.3 46% 94 29.95 0.0
14 15:45 S 3 10.00 Partly Cloudy SCT090 SCT120 89.8 67.5 48% 93 29.95 0.0
14 15:25 SE 7 10.00 Partly Cloudy SCT090 SCT120 88.5 67.8 50% 92 29.96 0.0
14 15:05 S 7 10.00 Fair CLR 90.7 66.7 45% 94 29.96 0.0
14 14:45 E 3 10.00 Partly Cloudy SCT060 SCT070 90.1 67.3 47% 94 29.96 0.0
14 14:25 Calm 10.00 Overcast SCT060 BKN070 OVC095 85.6 68.2 56% 89 29.97 0.0
14 14:05 Calm 10.00 Mostly Cloudy SCT050 BKN095 87.8 64.8 46% 90 29.97 0.0
14 13:45 Calm 10.00 Partly Cloudy SCT095 89.6 65.1 44% 92 29.97 0.0
14 13:25 Calm 10.00 Fair CLR 89.2 66 46% 92 29.98 0.0
14 13:05 Calm 10.00 Fair CLR 88.7 66.2 47% 91 29.98 0.0
14 12:45 Calm 10.00 Partly Cloudy SCT050 88.3 66.2 48% 91 29.99 0.0
14 12:25 NW 5 10.00 Fair CLR 88.2 65.8 48% 90 30 0.0
14 12:05 S 3 10.00 Fair CLR 87.1 65.5 49% 89 30 0.0
14 11:45 Calm 10.00 Fair CLR 87.4 65.7 48% 90 30 0.0
14 11:25 SW 3 10.00 Fair CLR 85.5 65.5 51% 87 30.01 0.0
14 11:05 SW 5 10.00 Fair CLR 84.6 66.2 54% 87 30.01 0.0
14 10:45 S 3 10.00 Fair CLR 83.3 67.6 59% 86 30.01 0.0
14 10:25 Calm 10.00 Fair CLR 81.9 66.7 60% 84 30.01 0.0
14 10:05 Calm 10.00 Fair CLR 80.6 66.7 63% 83 30.02 0.0
14 09:45 S 3 0.00 Fair CLR 79.2 66.7 66% 81 30.02 0.0
14 09:25 SW 3 10.00 Fair CLR 76.6 66.7 72% 78 30.03 0.0
14 09:05 Calm 10.00 Fair CLR 75.2 67.6 77% 76 30.03 0.0
14 08:45 Calm 10.00 Fair CLR 73.2 67.1 81% 30.03 0.0
14 08:25 Calm 10.00 Fair CLR 71.4 66.2 84% 30.02 0.0
14 08:05 Calm 10.00 Fair CLR 69.8 66 88% 30.02 0.0
14 07:45 Calm 10.00 Fair CLR 68.4 65.3 90% 30.03 0.0
14 07:25 Calm 10.00 Fair CLR 67.5 65.1 92% 30.03 0.0
14 07:05 Calm 10.00 Fair CLR 66.2 64.8 95% 30.02 0.0
14 06:45 Calm 10.00 Fair CLR 64.6 63.5 96% 30.01 0.0
14 06:25 Calm 7.00 Fair CLR 63.3 63 99% 30.01 0.0
14 06:05 Calm 7.00 Fair CLR 62.6 61.9 98% 30.01 0.0
14 05:45 Calm 10.00 Fair CLR 62.6 61.9 98% 30 0.0
14 05:25 Calm 7.00 Fair CLR 63.1 62.6 98% 30.01 0.0
14 05:05 Calm 7.00 Fair CLR 63.5 62.8 98% 30.01 0.0
14 04:45 Calm 7.00 Fair CLR 64.8 64.2 98% 30.01 0.0
14 04:25 Calm 7.00 Fair CLR 64.6 63.9 98% 30 0.0
14 04:05 Calm 10.00 Fair CLR 66.6 65.3 96% 30.01 0.0
14 03:45 Calm 10.00 Fair CLR 66.4 65.7 98% 30.01 0.0
14 03:25 Calm 10.00 Fair CLR 65.1 64 96% 30.02 0.0
14 03:05 Calm 10.00 Fair CLR 64.9 64 97% 30.02 0.0
14 02:45 Calm 10.00 Fair CLR 66 64.2 94% 30.02 0.0
14 02:25 Calm 10.00 Fair CLR 66.2 64.9 96% 30.02 0.0
14 02:05 Calm 10.00 Fair CLR 66.9 65.5 95% 30.02 0.0
14 01:45 Calm 10.00 Fair CLR 67.5 65.3 93% 30.02 0.0
14 01:25 Calm 10.00 Fair CLR 69.3 66.6 91% 30.02 0.0
14 01:05 Calm 10.00 Partly Cloudy SCT060 67.5 65.3 93% 30.03 0.0
14 00:45 Calm 10.00 Mostly Cloudy BKN060 68.9 66.2 91% 30.03 0.0
14 00:25 Calm 10.00 Mostly Cloudy BKN060 68.4 65.3 90% 30.03 0.0
14 00:05 Calm 10.00 Fair CLR 68 65.3 91% 30.03 0.0
13 23:45 Calm 10.00 Fair CLR 68.4 65.3 90% 30.03 0.0
13 23:25 Calm 10.00 Partly Cloudy SCT065 69.4 65.8 88% 30.03 0.0
13 23:05 Calm 10.00 Partly Cloudy SCT065 70.9 66.4 86% 30.03 0.0
13 22:45 Calm 0.00 Mostly Cloudy BKN065 72 67.1 85% 30.03 0.0
13 22:25 Calm 10.00 Mostly Cloudy BKN065 72.5 67.3 84% 30.03 0.0
13 22:05 Calm 10.00 Partly Cloudy SCT065 SCT090 73.4 67.3 81% 30.02 0.0
13 21:45 Calm 10.00 Mostly Cloudy BKN065 BKN075 BKN090 74.5 68.2 81% 30.02 0.0
13 21:25 Calm 10.00 Mostly Cloudy BKN065 BKN080 74.7 69.3 83% 30.01 0.0
13 21:05 Calm 10.00 Partly Cloudy SCT080 SCT110 75.7 70 82% 76 30.01 0.0
13 20:45 Calm 10.00 Mostly Cloudy BKN070 BKN080 BKN110 77.4 69.8 78% 79 30.01 0.0
13 20:25 Calm 10.00 Overcast BKN075 OVC095 79 69.6 73% 82 30.01 0.0
13 20:05 Calm 10.00 Mostly Cloudy SCT075 BKN085 80.1 70.3 72% 83 30.01 0.0
13 19:45 Calm 10.00 Fair CLR 80.6 69.4 69% 84 30.01 0.0
13 19:25 Calm 10.00 Fair CLR 83.1 65.5 55% 85 30.01 0.0
13 19:05 Calm 10.00 Partly Cloudy SCT080 84.6 65.8 54% 87 30.01 0.0
13 18:45 Calm 10.00 Fair CLR 83.3 66 56% 85 30.01 0.0
13 18:25 SE 3 10.00 Fair CLR 86.9 64 47% 88 30.01 0.0
13 18:05 S 3 10.00 Fair CLR 86.5 63.7 47% 88 30 0.0
13 17:45 Calm 10.00 Fair CLR 87.3 64 46% 89 30.01 0.0
13 17:25 SE 5 10.00 Partly Cloudy SCT085 SCT110 88.2 63.1 43% 89 30.01 0.0
13 17:05 S 3 10.00 Partly Cloudy SCT085 SCT110 88.3 63.5 44% 89 30.01 0.0
13 16:45 SE 3 10.00 Partly Cloudy SCT065 SCT080 86 64.2 48% 87 30.01 0.0
13 16:25 S 5 10.00 Partly Cloudy SCT060 SCT090 88.9 62.1 41% 89 30.01 0.0
13 16:05 SW 5 10.00 Mostly Cloudy SCT060 BKN075 BKN090 88.3 62.8 43% 89 30.02 0.0
13 15:45 S 6 10.00 Mostly Cloudy SCT060 BKN075 88.5 62.8 42% 89 30.02 0.0
13 15:25 Calm 10.00 Partly Cloudy SCT050 87.3 64.2 46% 89 30.03 0.0
13 15:05 S 5 10.00 Fair CLR 88.3 63.9 44% 90 30.04 0.0
13 14:45 Calm 10.00 Partly Cloudy SCT047 SCT050 SCT060 87.1 63.5 45% 88 30.03 0.0
13 14:25 SE 5 10.00 Partly Cloudy SCT045 SCT050 86.2 65.5 50% 88 30.04 0.0
13 14:05 S 3 10.00 Fair CLR 86.5 63.1 46% 87 30.05 0.0
13 13:45 SE 3 10.00 Partly Cloudy SCT041 SCT050 SCT080 86.7 66.9 52% 90 30.06 0.0
13 13:25 S 5 10.00 Partly Cloudy SCT039 84.7 65.5 53% 87 30.06 0.0
13 13:05 Calm 10.00 Partly Cloudy SCT038 84.6 65.3 53% 86 30.07 0.0
13 12:45 Calm 10.00 Partly Cloudy SCT038 84.4 63.5 50% 86 30.07 0.0
13 12:25 Calm 10.00 Fair CLR 84.4 66.4 55% 87 30.08 0.0
13 12:05 Calm 10.00 Fair CLR 82.6 65.8 57% 85 30.08 0.0
13 11:25 Calm 10.00 Fair CLR 81 67.3 63% 83 30.09 0.0
13 11:05 Calm 10.00 Fair CLR 79.9 66.7 64% 82 30.09 0.0
13 10:45 Calm 10.00 Fair CLR 78.8 66.2 65% 81 30.09 0.0
13 10:25 Calm 10.00 Fair CLR 77.7 65.8 67% 80 30.1 0.0
13 10:05 Calm 10.00 Partly Cloudy SCT070 76.6 68 75% 78 30.1 0.0
13 09:45 Calm 10.00 Partly Cloudy SCT080 SCT090 73 67.6 83% 30.1 0.0
13 09:25 Calm 10.00 Mostly Cloudy SCT080 BKN090 72.5 67.5 84% 30.1 0.0
13 09:05 Calm 10.00 Mostly Cloudy BKN090 71.1 67.3 88% 30.1 0.0
13 08:45 Calm 10.00 Mostly Cloudy BKN090 69.1 66.6 92% 30.1 0.0
13 08:25 Calm 10.00 Mostly Cloudy BKN080 68 66.2 94% 30.09 0.0
13 08:05 Calm 10.00 Mostly Cloudy BKN080 67.1 65.7 95% 30.09 0.0
13 07:45 Calm 7.00 Mostly Cloudy BKN080 65.3 64.4 97% 30.08 0.0
13 07:25 Calm 7.00 Partly Cloudy SCT080 63.3 62.6 98% 30.08 0.0
13 07:05 Calm 10.00 Fair CLR 62.6 61.7 97% 30.07 0.0
13 06:45 Calm 7.00 Fair CLR 62.1 61.5 98% 30.06 0.0
13 06:25 Calm 7.00 Fair CLR 61.9 61.2 98% 30.06 0.0
13 06:05 Calm 10.00 Fair CLR 62.8 62.1 98% 30.06 0.0
13 05:45 Calm 10.00 Fair CLR 63.1 62.6 98% 30.05 0.0
13 05:25 Calm 10.00 Fair CLR 64.8 63.9 97% 30.04 0.0
13 05:05 Calm 10.00 Fair CLR 64.6 63.9 98% 30.04 0.0
13 04:45 Calm 10.00 Fair CLR 63.7 62.8 97% 30.03 0.0
13 04:25 Calm 10.00 Fair CLR 64 63.5 98% 30.02 0.0
13 04:05 Calm 10.00 Partly Cloudy SCT080 65.5 64.4 96% 30.02 0.0
13 03:45 Calm 10.00 Overcast OVC080 65.3 63.9 95% 30.02 0.0
13 03:25 Calm 10.00 Partly Cloudy SCT080 64.6 63.7 97% 30.02 0.0
13 03:05 Calm 0.00 NULL NULL 65.3 64 96% 30.02 0.0
13 02:45 Calm 10.00 Fair CLR 66 64.8 96% 30.02 0.0
13 02:25 Calm 10.00 Partly Cloudy SCT080 66.2 64.8 95% 30.03 0.0
13 02:05 Calm 10.00 Mostly Cloudy BKN080 67.8 65.8 93% 30.03 0.0
13 01:45 Calm 10.00 Mostly Cloudy BKN080 67.5 65.5 93% 30.03 0.0
13 01:25 Calm 10.00 Partly Cloudy SCT080 67.1 65.3 94% 30.04 0.0
13 01:05 Calm 10.00 Partly Cloudy SCT080 68 65.8 93% 30.04 0.0
13 00:45 Calm 10.00 Mostly Cloudy SCT055 SCT070 BKN080 68.9 66.2 91% 30.05 0.0
13 00:25 Calm 10.00 Partly Cloudy SCT055 SCT070 68 65.3 91% 30.05 0.0
13 00:05 Calm 10.00 Partly Cloudy SCT055 68 65.3 91% 30.05 0.0
12 23:45 Calm 10.00 Partly Cloudy SCT055 68.2 65.3 91% 30.05 0.0
12 23:25 Calm 10.00 Partly Cloudy SCT055 68.4 65.3 90% 30.05 0.0
12 23:05 Calm 10.00 Partly Cloudy SCT055 68.9 65.5 89% 30.05 0.0
12 22:45 Calm 10.00 Partly Cloudy SCT075 70 65.8 87% 30.05 0.0
12 22:25 Calm 10.00 Overcast SCT055 OVC065 71.1 66.4 85% 30.04 0.0
12 22:05 Calm 7.00 Mostly Cloudy BKN055 BKN065 71.1 66.6 86% 30.04 0.0
12 21:45 Calm 10.00 Fair CLR 70.3 67.1 90% 30.03 0.0
12 21:25 Calm 10.00 Fair CLR 71.4 67.1 86% 30.03 0.0
12 21:05 Calm 10.00 Partly Cloudy SCT055 72.1 68 87% 30.03 0.0
12 20:45 Calm 10.00 Partly Cloudy SCT055 73.9 68.4 83% 30.03 0.0
12 20:25 Calm 10.00 Fair CLR 76.1 68.5 78% 77 30.03 0.0
12 20:05 Calm 10.00 Fair CLR 77.5 68 73% 79 30.03 0.0
12 19:45 Calm 10.00 Fair CLR 80.1 66.7 64% 82 30.02 0.0
12 19:25 Calm 10.00 Fair CLR 81.7 64.6 56% 83 30.02 0.0
12 19:05 Calm 10.00 Fair CLR 82.8 64 53% 84 30.02 0.0
12 18:45 Calm 10.00 Fair CLR 83.3 63 50% 84 30.02 0.0
12 18:25 SE 3 10.00 Fair CLR 83.5 62.1 49% 84 30.01 0.0
12 18:05 Calm 10.00 Fair CLR 84.6 61.9 47% 85 30.01 0.0
12 17:45 Calm 10.00 Partly Cloudy SCT085 84.2 61.7 47% 85 30.02 0.0
12 17:25 Calm 10.00 Partly Cloudy SCT085 85.1 61.2 45% 85 30.02 0.0
12 17:05 SE 5 10.00 Fair CLR 85.6 60.3 42% 86 30.02 0.0
12 16:45 SE 6 10.00 Fair CLR 85.3 59.2 41% 85 30.02 0.0
12 16:25 SE 3 10.00 Fair CLR 83.7 61 46% 84 30.03 0.0
12 16:05 S 5 10.00 Partly Cloudy SCT050 85.5 60.3 43% 85 30.03 0.0
12 15:45 SE 3 10.00 Partly Cloudy SCT050 85.1 60.4 43% 85 30.03 0.0
12 15:25 E 5 10.00 Fair CLR 84.9 60.4 44% 85 30.03 0.0
12 15:05 S 6 10.00 Fair CLR 84.6 61.9 47% 85 30.04 0.0
12 14:45 S 7 10.00 Fair CLR 84.4 62.2 47% 85 30.04 0.0
12 14:25 S 6 10.00 Partly Cloudy SCT047 SCT055 84 62.2 48% 85 30.04 0.0
12 14:05 SE 3 10.00 Fair CLR 84.9 61 45% 85 30.05 0.0
12 13:45 SW 6 10.00 Fair CLR 83.8 61.9 48% 84 30.06 0.0
12 13:25 Calm 10.00 Fair CLR 83.3 61.3 48% 84 30.06 0.0
12 13:05 Calm 10.00 Fair CLR 82.6 61.7 49% 83 30.06 0.0
12 12:45 NE 3 10.00 Fair CLR 82.4 61.5 49% 83 30.07 0.0
12 12:25 Calm 10.00 Fair CLR 81.1 62.6 53% 82 30.08 0.0
12 12:05 Calm 10.00 Fair CLR 81 62.8 54% 82 30.08 0.0
12 11:45 Calm 10.00 Fair CLR 79.5 61.9 55% 81 30.08 0.0
12 11:25 Calm 10.00 Fair CLR 77.9 60.8 56% 79 30.09 0.0
12 11:05 Calm 10.00 Fair CLR 77 59.9 56% 79 30.09 0.0
12 10:45 Calm 10.00 Fair CLR 76.8 60.3 57% 79 30.09 0.0
12 10:25 E 5 10.00 Fair CLR 75.2 59.4 58% 78 30.09 0.0
12 10:05 Calm 10.00 Fair CLR 74.5 58.8 58% 30.1 0.0
12 09:45 NE 3 10.00 Fair CLR 73 58.3 60% 30.1 0.0
12 09:25 N 3 10.00 Fair CLR 72.1 58.5 62% 30.09 0.0
Date Time (edt) Wind (mph) Vis. (mi.) Weather Sky Cond. Air Dwpt Max. Min. Relative Humidity Wind Chill (°F) Heat Index (°F) altimeter (in) sea level (mb) 1 hr 3 hr 6 hr
6 hour
Temperature (ºF) Pressure Precipitation (in)